Theta_e
310 310 310 311 311 310 309 308 307 305 304 305 305 306 307 307 308 304 304 314 314 311 315 316 317 314 314 313 310 316 314 313 312 302 302 301 301 304 305 310 307 306 301 298 298 295 295 316 314 307 313 313 314 317
309 309 309 310 310 309 308 308 307 305 303 303 304 305 306 306 307 307 306 316 317 309 310 315 316 318 320 317 314 316 318 318 323 315 311 310 307 307 305 300 312 305 307 303 304 301 310 314 312 318 316 314 319 315
309 309 309 310 309 308 308 307 306 305 303 302 302 304 305 305 306 305 302 308 313 309 308 307 309 317 319 321 323 313 318 320 323 326 316 311 305 307 302 305 304 310 313 305 303 306 311 314 315 320 318 319 320 318
309 309 309 309 309 308 307 306 306 304 303 301 301 303 304 305 306 305 303 309 310 311 305 308 321 317 321 320 321 321 317 322 323 321 311 308 305 309 302 305 303 308 308 306 306 308 312 316 318 320 319 319 319 318
308 309 310 309 308 307 307 306 305 304 303 301 301 302 304 305 306 304 303 307 309 310 306 308 313 313 318 317 318 318 317 318 312 308 306 304 307 310 309 308 305 309 305 303 303 309 309 311 317 321 319 317 317 316
307 308 309 308 308 307 306 305 305 304 302 301 301 303 304 305 305 302 303 310 308 313 306 303 311 312 313 314 315 317 316 316 312 306 306 309 317 311 304 302 311 311 312 312 311 314 312 312 315 316 314 314 319 318
307 308 308 308 307 306 306 305 305 303 302 301 302 303 304 304 301 301 302 305 304 309 306 300 301 311 314 312 311 314 317 312 311 307 306 306 307 308 304 299 310 312 311 311 311 310 307 310 308 310 315 319 319 319
307 308 308 307 307 306 305 305 304 303 302 301 302 304 305 304 303 300 307 306 303 310 308 298 300 305 312 305 304 314 311 311 309 307 307 304 306 307 300 306 309 310 310 310 310 311 310 311 309 311 319 317 315 315
307 308 307 307 306 305 305 305 304 303 302 302 303 304 303 300 299 307 311 309 312 310 304 300 297 299 311 306 307 310 310 303 311 304 304 305 302 298 304 306 309 309 307 305 307 308 308 309 308 313 317 315 313 313
307 307 307 306 306 305 305 304 304 303 302 303 302 299 298 302 311 312 309 305 304 305 309 302 305 300 308 305 304 307 306 301 298 303 306 301 299 306 310 309 308 308 309 306 302 301 302 305 308 310 316 316 315 316
306 307 307 306 306 305 305 305 304 304 303 299 299 301 308 310 307 304 299 299 299 296 300 300 301 301 311 301 302 307 302 302 295 298 300 298 297 304 309 309 312 309 309 307 307 305 304 306 310 311 316 318 317 314
306 306 306 305 305 305 305 305 305 302 301 301 301 307 306 302 299 295 294 297 297 294 300 297 298 303 306 312 306 306 300 302 295 305 300 294 301 307 310 311 311 312 310 309 310 309 309 310 310 311 314 317 315 313
305 305 305 305 305 305 305 304 304 303 304 307 302 299 298 298 288 289 288 292 293 299 301 301 298 303 308 310 306 305 299 297 305 298 296 299 307 312 312 311 312 312 312 312 312 312 311 311 312 312 317 316 313 312
304 304 304 304 304 305 304 305 305 303 299 300 297 286 292 290 293 293 293 296 300 301 302 302 300 302 306 303 303 300 302 301 295 292 295 302 312 312 312 313 311 310 312 311 312 312 311 310 311 318 318 315 313 312
304 304 304 304 304 305 305 305 304 302 298 298 298 288 291 297 298 299 299 300 302 305 303 302 303 303 302 301 300 299 296 294 295 293 303 311 313 314 313 314 312 312 312 312 312 312 312 312 318 317 317 315 315 314
303 303 302 304 304 305 305 304 301 302 301 299 297 294 296 295 295 298 299 301 305 305 305 304 302 298 298 299 297 295 294 293 298 308 311 313 312 313 313 313 314 314 314 314 315 314 313 312 317 317 317 315 314 313
303 299 303 303 304 304 304 301 299 297 297 295 295 298 297 297 298 300 302 303 308 303 298 300 296 295 300 296 296 298 295 302 309 310 312 313 311 312 313 315 314 314 313 314 315 314 312 318 318 316 313 313 313 313
300 302 304 303 303 302 301 301 299 297 292 295 293 296 300 302 301 302 305 307 305 303 303 299 302 297 295 294 294 301 305 309 310 312 312 313 313 313 313 312 313 314 315 315 316 315 314 315 315 314 314 313 313 312
302 302 304 303 303 300 295 297 300 292 292 294 296 299 300 301 304 305 304 306 307 307 303 301 298 295 296 300 300 302 303 304 305 309 311 312 312 312 313 313 312 312 312 311 311 311 311 313 313 314 313 313 310 311
301 301 301 302 302 298 293 295 302 295 292 294 297 297 299 299 302 303 303 303 301 301 298 297 298 299 298 301 304 304 305 306 305 303 304 306 307 308 308 309 308 310 310 311 310 304 308 309 310 312 310 309 310 309
300 299 301 300 301 299 297 295 293 295 296 295 297 297 297 300 298 298 299 302 297 296 294 298 299 301 304 304 306 306 305 304 303 303 302 301 304 304 305 306 307 307 305 304 304 304 302 307 308 309 309 309 309 309
299 300 299 299 295 296 295 300 296 299 296 296 296 297 295 294 294 296 299 296 295 296 298 299 300 301 301 303 304 304 305 305 304 303 300 301 301 302 303 303 303 302 302 302 302 302 302 304 309 308 308 308 306 309
300 300 297 295 290 291 289 300 293 295 291 292 295 292 292 293 296 300 294 296 297 301 302 302 302 304 303 304 305 305 305 303 302 301 302 301 302 302 302 302 302 301 301 302 304 303 303 301 303 306 307 306 307 307
301 296 293 292 292 288 295 292 294 293 293 291 291 289 291 293 298 294 291 294 298 300 301 303 302 301 302 303 300 301 302 302 301 301 302 302 301 301 303 303 303 303 303 304 303 303 303 303 300 304 306 306 305 305
290 288 290 285 293 290 289 289 290 290 288 291 289 290 292 296 291 290 290 295 298 298 300 301 300 299 297 298 300 300 303 300 298 298 300 301 300 300 300 301 301 303 305 303 302 303 304 304 303 303 303 304 304 303
284 290 288 290 290 289 290 287 288 289 290 289 291 294 296 293 289 288 292 295 296 297 297 297 296 296 296 298 296 297 297 299 298 296 298 299 297 297 296 296 296 298 303 303 301 301 300 301 302 303 302 302 293 299
285 289 293 297 295 294 292 293 294 292 290 289 293 292 292 287 287 290 294 296 295 297 298 297 296 295 294 295 296 296 297 297 296 295 297 297 298 298 297 295 295 298 301 301 300 299 300 300 300 302 302 303 303 304
291 294 290 293 294 295 291 291 290 289 290 292 294 287 287 287 287 293 295 298 297 297 296 296 296 295 295 295 295 295 295 296 297 297 297 297 298 299 299 299 298 293 297 299 298 298 299 299 299 300 300 300 302 304
293 296 295 292 293 292 292 291 291 292 295 294 290 289 288 294 297 297 297 298 298 297 294 293 294 297 297 297 296 297 297 295 292 290 289 289 290 293 296 296 296 297 297 297 292 291 296 297 298 299 300 301 302 303
293 298 293 292 290 290 293 297 295 297 298 297 296 294 294 295 298 300 300 298 296 295 296 297 297 297 296 295 295 295 296 295 295 292 289 289 290 294 295 295 295 296 297 296 296 296 291 293 295 297 298 299 300 300
296 296 293 293 292 296 298 299 300 299 298 296 296 293 293 294 297 299 300 300 298 298 297 296 295 297 297 296 295 292 292 296 296 295 295 295 295 295 295 297 297 298 298 297 296 296 295 295 295 295 296 298 300 298
293 293 293 291 292 298 300 296 296 295 295 295 294 295 295 294 290 297 300 299 297 296 292 293 294 294 298 300 300 297 290 295 296 296 296 296 296 297 297 296 296 297 298 299 298 297 296 295 295 295 295 297 299 301
295 296 296 294 294 293 296 295 294 292 294 293 293 294 295 294 287 295 301 301 298 297 296 296 297 297 297 299 299 299 293 298 296 290 289 288 288 290 291 295 297 299 300 299 300 298 297 296 295 295 295 298 299 300
Wind_Speed
12 12 12 12 13 14 14 11 8 4 2 7 10 12 14 15 16 8 6 4 2 4 4 7 9 7 6 5 4 6 4 4 3 1 0 4 3 3 4 5 7 5 5 3 4 3 4 10 6 4 5 4 3 6
14 13 13 13 14 16 16 13 11 6 1 4 7 10 11 13 15 12 4 5 3 3 5 2 7 4 4 3 2 5 2 6 3 3 5 4 4 1 5 1 2 3 7 7 6 7 6 7 9 7 7 2 5 7
15 14 13 15 16 17 17 15 11 8 4 1 5 7 10 12 13 10 4 5 4 2 5 1 4 6 1 3 4 3 3 4 4 1 2 2 2 4 2 2 6 6 2 4 7 2 8 8 6 9 7 9 8 7
16 15 14 16 18 17 16 14 11 8 5 1 4 6 9 11 12 11 3 4 3 3 2 3 4 2 7 5 2 2 2 3 2 1 1 0 2 1 2 4 2 4 3 4 3 7 9 9 9 9 9 8 9 10
16 14 15 18 20 19 17 15 12 9 5 3 4 5 8 10 12 7 4 5 4 1 4 5 6 6 6 2 5 2 2 2 2 3 2 3 3 3 3 3 4 2 4 4 5 4 6 3 6 9 8 8 8 9
14 15 18 18 19 19 18 15 12 10 6 4 5 5 8 10 11 3 2 1 4 4 2 4 4 3 5 4 4 5 2 2 2 1 3 3 1 3 1 2 3 5 7 3 5 7 7 3 3 5 5 6 8 10
14 16 19 20 20 19 18 15 12 9 7 5 5 5 8 8 4 2 1 3 8 3 2 4 3 4 7 5 2 3 3 2 1 3 2 2 2 2 1 2 7 5 7 7 3 7 5 4 1 3 7 10 11 10
15 18 21 21 21 19 17 14 12 9 7 5 5 7 9 10 10 6 2 11 3 2 3 3 4 2 4 3 2 4 2 3 2 3 2 1 3 3 3 5 5 6 7 7 5 6 7 6 2 3 9 9 10 9
16 20 22 21 21 19 17 14 11 9 7 6 6 7 4 3 3 2 7 6 2 1 3 3 3 4 3 3 4 1 3 2 4 4 3 1 3 5 5 6 6 6 6 4 4 7 7 7 6 7 10 9 9 7
19 18 20 19 19 18 16 14 11 9 7 4 3 3 4 4 10 6 1 2 2 3 4 4 4 3 5 4 3 4 2 2 3 6 3 5 7 6 7 7 4 1 6 4 1 1 3 3 8 6 9 9 9 9
18 21 21 21 19 18 16 14 12 9 5 3 4 2 2 3 2 3 4 4 5 4 4 5 3 3 2 5 4 4 5 3 3 6 6 4 4 10 11 11 8 8 6 2 5 3 1 2 3 5 7 10 9 14
17 20 21 20 18 17 16 14 14 7 3 6 5 6 3 3 4 4 4 4 6 6 5 6 6 5 5 3 1 3 2 2 4 2 5 3 4 7 6 10 8 7 8 7 4 5 6 5 6 4 4 11 12 12
19 20 19 19 17 16 15 13 13 14 11 4 4 5 3 3 2 6 6 5 4 4 4 5 5 4 3 2 1 2 4 4 4 1 2 3 2 6 3 6 7 8 7 4 5 6 6 7 7 6 10 11 13 11
16 17 17 15 14 14 12 12 8 2 4 4 5 0 5 4 5 4 5 4 5 2 4 5 4 4 3 2 2 3 4 1 4 3 6 1 3 4 7 7 8 6 5 1 6 6 7 6 7 9 14 13 12 9
16 15 15 13 14 13 10 9 7 3 3 4 2 5 6 6 6 8 7 5 5 4 3 2 1 3 2 3 4 2 3 5 6 6 2 3 7 8 7 6 6 5 4 5 3 4 2 4 9 10 12 10 9 9
15 12 5 14 13 12 12 8 2 3 3 4 3 3 4 5 8 6 7 2 3 3 3 2 2 3 2 3 5 5 2 3 2 5 4 5 7 7 6 6 6 6 6 6 7 6 4 1 7 9 10 10 9 10
8 2 11 15 14 14 12 3 3 4 4 3 3 4 6 6 4 1 3 3 3 3 2 1 3 4 3 2 1 2 3 2 7 6 5 6 6 5 6 7 4 2 5 6 5 6 5 5 7 8 8 5 7 8
3 6 14 15 11 7 3 3 3 3 4 4 3 4 3 3 6 3 3 4 3 1 1 2 1 1 1 1 3 4 5 5 5 4 4 5 5 6 6 7 7 7 8 8 8 7 7 4 5 4 6 6 6 6
7 8 10 8 3 2 4 4 3 2 4 4 4 3 3 3 3 4 5 5 6 4 3 4 1 1 1 4 4 5 7 7 4 4 3 3 3 4 5 5 5 7 6 6 6 4 5 7 2 1 2 4 5 5
15 12 9 5 3 3 3 2 2 3 4 3 3 3 1 2 1 1 2 1 2 2 1 1 2 5 4 5 5 5 4 4 6 4 4 3 4 6 6 5 3 4 5 5 3 5 4 4 4 0 4 2 3 2
7 3 4 4 2 3 3 3 5 3 3 3 3 3 1 1 1 1 1 2 2 1 1 1 3 3 5 3 4 4 5 5 4 3 3 4 4 5 4 5 5 3 2 3 4 5 4 4 3 3 2 3 3 3
4 7 0 2 1 2 3 3 2 3 3 2 1 3 2 3 2 2 1 2 3 3 2 2 3 3 3 6 5 4 4 4 4 4 6 5 4 4 4 4 4 4 4 4 4 4 4 4 2 3 2 3 4 2
12 3 1 2 1 4 5 2 3 3 3 3 2 3 3 3 3 3 3 3 3 3 3 4 3 4 4 3 1 3 5 5 4 4 4 5 5 5 4 5 4 5 5 5 5 5 4 5 4 4 4 4 3 4
3 4 4 5 8 4 3 3 3 3 3 3 4 5 7 4 4 4 5 7 5 6 2 5 3 2 2 3 2 3 5 4 4 4 6 7 6 6 6 7 7 5 5 6 5 4 4 4 5 4 6 6 6 4
2 4 4 5 4 7 8 7 6 4 4 7 7 2 4 4 3 5 7 3 6 6 6 5 5 4 3 4 3 3 7 8 6 6 6 7 8 8 8 9 9 9 10 7 6 8 11 7 5 5 6 7 8 8
3 5 4 3 2 1 1 3 6 4 3 7 5 7 4 2 4 4 3 3 4 6 6 5 5 5 5 6 6 6 8 8 6 6 6 8 8 8 9 10 10 11 9 9 9 10 11 12 11 11 8 11 8 5
3 2 4 4 2 1 2 1 4 3 2 2 1 2 4 5 4 2 2 3 4 5 5 4 4 4 5 5 5 6 6 5 4 6 7 7 7 7 8 9 12 10 10 13 12 12 12 11 12 10 10 9 6 8
8 7 1 2 5 2 1 3 3 4 4 4 2 2 1 3 2 2 2 3 5 3 2 2 2 2 3 5 5 6 6 5 6 7 7 8 8 9 10 10 12 15 12 12 13 12 11 11 11 13 12 11 10 2
3 3 3 5 4 4 3 2 3 2 1 1 1 2 2 2 2 3 3 4 3 2 2 2 3 3 3 3 5 4 3 3 6 11 13 10 10 8 7 8 10 10 10 11 12 9 13 12 10 10 13 10 8 7
1 1 1 3 2 2 2 3 5 4 3 3 3 3 3 2 2 1 2 2 2 2 2 3 4 4 4 3 3 6 3 4 4 6 8 10 10 10 10 11 11 11 10 10 11 12 11 10 10 10 10 9 9 9
2 1 1 3 2 3 5 5 4 3 1 3 4 3 2 2 3 4 3 2 1 2 3 4 3 2 2 2 3 4 6 3 5 10 10 9 10 10 11 11 11 10 10 11 11 11 11 10 10 11 13 14 14 10
2 4 2 3 4 5 4 3 3 1 2 2 3 2 3 3 1 3 4 4 4 1 1 2 2 3 3 3 4 5 8 7 8 8 12 10 10 11 12 11 11 10 11 11 10 11 12 13 10 10 10 15 14 14
3 4 3 3 4 5 4 4 4 3 3 3 3 3 3 2 3 2 3 3 2 2 0 2 2 3 4 5 4 4 6 6 11 10 12 12 11 12 10 8 8 9 9 9 8 6 6 8 8 11 12 11 8 11
Wind_Direction
201 190 185 189 183 176 166 168 168 162 22 2 359 1 360 2 4 5 279 287 26 320 321 6 354 28 5 12 29 310 25 352 35 75 113 272 250 218 31 120 153 154 133 162 90 96 264 232 261 101 203 331 325 100
201 196 187 188 182 175 167 168 167 171 158 359 352 357 354 354 359 350 284 335 335 229 260 287 270 273 48 20 73 320 96 25 9 34 14 337 349 44 45 357 166 113 190 165 163 197 199 137 157 167 151 141 89 88
201 202 190 183 179 175 167 163 169 170 189 329 340 347 344 346 354 1 299 301 302 253 295 257 275 113 54 98 112 60 36 358 33 290 272 284 357 38 46 238 8 31 111 95 69 83 155 168 161 153 144 120 123 115
202 203 192 179 173 169 162 159 164 174 188 235 308 326 335 339 344 347 308 309 287 285 266 274 96 124 109 44 337 136 123 352 240 241 184 321 14 346 295 249 166 197 109 162 117 14 74 77 98 118 110 105 108 99
197 192 183 174 169 166 165 164 167 175 195 229 278 310 325 332 334 310 257 270 290 321 325 307 336 263 133 121 296 257 83 23 337 355 359 267 229 56 296 23 321 40 172 112 192 152 122 26 138 135 137 150 151 131
194 181 173 167 165 164 162 163 169 180 195 233 271 301 321 331 334 295 292 87 4 337 276 292 296 116 131 158 256 285 180 213 226 190 243 283 152 98 320 203 249 41 30 66 151 138 127 74 86 106 116 118 113 101
197 181 168 166 166 163 162 164 173 180 194 222 260 289 306 317 299 258 287 290 348 309 249 281 260 191 178 165 225 276 187 255 168 256 232 226 269 100 241 219 292 12 356 336 147 123 114 114 229 344 127 114 108 110
198 180 166 165 162 159 159 167 172 180 195 221 258 286 296 301 287 297 261 234 241 303 269 262 258 134 183 179 224 200 200 175 253 223 340 248 318 164 239 215 262 307 308 280 278 164 149 135 83 136 122 115 113 124
179 171 162 162 159 159 161 165 170 179 199 218 267 294 288 222 233 168 135 137 215 242 292 238 244 194 163 231 184 154 181 219 220 180 212 127 238 220 219 208 231 238 260 247 313 143 150 153 207 169 138 139 137 151
168 155 153 155 157 158 159 163 167 178 181 215 249 215 208 191 120 120 78 151 204 246 218 248 293 244 161 185 219 128 131 219 288 224 168 196 240 242 238 243 222 353 331 111 187 228 189 204 201 194 167 161 167 142
173 160 157 157 157 159 163 164 170 157 168 213 215 237 55 82 165 227 186 190 187 219 209 229 258 297 244 156 205 187 173 219 206 250 140 227 234 230 224 233 209 198 217 274 178 179 291 341 253 203 177 173 139 135
158 156 154 154 158 162 165 172 177 193 159 292 288 283 151 205 221 206 206 213 194 212 189 186 213 190 275 78 88 197 182 257 256 193 150 230 256 270 257 209 210 189 192 209 225 224 207 219 277 249 188 131 128 127
145 145 148 153 159 164 172 183 189 226 330 265 198 190 190 169 151 203 194 196 201 195 190 164 179 173 356 46 7 281 167 230 313 244 239 196 265 24 127 110 102 91 78 36 327 296 257 210 221 200 123 125 129 129
136 149 156 153 156 162 168 173 176 228 265 251 171 79 191 223 220 208 221 202 229 194 139 153 172 162 138 91 250 249 212 194 257 200 204 210 343 109 81 58 67 43 11 242 289 261 266 234 233 136 129 137 132 134
141 141 143 151 156 160 151 132 148 178 272 264 211 196 203 239 241 223 229 249 242 172 145 115 144 113 132 186 189 276 217 212 206 222 68 22 51 50 41 40 36 12 2 354 314 309 290 9 122 121 132 134 132 132
132 123 162 154 154 143 131 135 157 237 243 247 261 285 224 221 257 223 231 144 19 95 75 33 114 126 199 222 191 226 213 258 303 91 97 59 48 41 24 9 1 348 359 10 7 1 350 300 139 143 137 139 140 145
133 94 157 143 145 143 172 185 192 238 271 249 245 260 268 289 277 66 11 38 24 56 118 206 175 164 273 220 239 293 245 79 107 89 76 70 55 26 18 7 348 332 340 349 359 4 3 82 109 118 136 162 149 148
78 132 140 141 143 132 185 235 259 251 247 245 268 277 349 349 3 35 41 15 68 353 350 280 75 49 251 244 78 14 49 84 87 91 80 52 33 43 48 19 5 19 16 21 20 13 20 71 118 146 145 154 131 146
133 128 133 152 203 211 173 187 270 271 248 258 272 340 5 2 30 3 21 17 51 43 357 338 76 138 352 56 46 31 30 19 10 106 129 128 46 28 23 18 358 360 17 14 14 358 329 345 347 132 187 174 178 185
88 73 68 49 337 230 142 162 159 279 275 231 252 274 203 211 168 300 89 20 45 6 352 318 352 51 65 59 57 45 30 8 0 7 39 34 34 26 14 344 337 352 333 326 300 292 312 322 315 8 124 112 156 145
62 18 20 338 61 337 311 193 180 217 268 258 234 195 204 220 214 103 29 12 19 291 275 323 336 62 69 49 76 78 33 37 7 10 10 340 338 333 325 318 326 305 299 309 305 305 262 245 162 108 147 110 62 21
121 137 7 5 5 286 256 237 226 246 218 160 270 161 206 231 225 172 218 209 205 232 259 305 316 337 40 57 57 40 3 360 324 312 310 286 279 265 282 299 316 304 304 301 302 292 286 277 238 99 81 66 31 305
149 129 26 97 229 209 260 211 220 242 199 173 172 214 202 204 206 169 222 232 226 192 240 231 231 71 49 349 287 260 254 249 260 275 284 275 280 288 291 291 294 296 287 280 282 284 277 281 211 201 165 177 220 259
172 192 223 198 193 190 155 210 219 242 176 203 173 210 201 197 156 180 212 223 211 200 155 69 81 240 234 237 286 3 36 15 353 353 358 348 336 324 322 318 315 317 332 327 305 277 265 267 279 203 193 200 212 223
225 253 166 245 236 192 180 174 180 203 193 198 198 138 244 146 184 208 207 83 34 61 73 43 15 19 7 349 6 14 45 36 8 353 336 335 326 328 329 333 334 336 333 325 324 328 322 290 256 247 246 218 200 226
235 214 186 235 240 224 261 208 189 196 154 202 191 162 193 219 192 63 56 23 51 53 44 33 7 2 347 9 2 4 4 11 2 330 325 360 340 325 317 313 311 309 314 318 323 325 323 326 323 323 314 299 276 234
268 257 200 190 200 187 273 339 10 352 104 316 352 27 143 191 108 115 137 30 71 59 37 27 9 353 341 336 339 337 333 332 317 291 295 291 287 287 289 288 286 287 301 302 302 301 299 297 302 306 313 296 288 294
197 227 63 9 126 179 91 40 64 42 39 1 348 115 110 53 108 105 114 100 87 79 347 332 314 287 286 293 306 303 302 297 291 286 279 275 278 287 285 282 284 283 279 275 275 283 283 275 281 287 290 296 300 344
11 9 14 48 70 70 45 48 97 94 63 6 77 75 118 52 116 136 142 140 138 137 291 292 276 225 240 247 249 258 293 324 318 303 299 298 301 291 291 289 285 283 281 280 275 268 276 282 297 299 285 279 284 312
11 7 180 85 64 90 75 67 103 117 136 94 94 119 135 151 149 247 154 185 204 184 222 253 265 241 237 241 277 299 285 264 267 276 288 289 288 291 289 287 284 279 271 263 263 266 261 259 262 264 269 252 254 258
312 314 73 60 78 128 125 109 100 100 58 89 105 125 135 173 168 200 207 176 189 233 248 270 314 351 146 261 280 288 300 268 262 281 279 278 279 281 281 281 279 274 268 255 250 248 250 249 244 254 250 260 258 245
196 241 208 142 144 144 138 145 167 141 152 208 144 126 161 185 172 168 182 188 226 318 340 275 316 314 308 266 228 219 225 260 276 281 288 288 291 295 297 292 286 279 270 265 250 245 246 242 239 236 255 244 241 252
209 226 204 148 142 165 168 189 170 151 189 191 167 174 185 145 187 247 171 183 152 234 41 16 321 335 317 304 316 266 250 260 279 283 276 271 274 283 292 288 296 298 283 290 275 253 242 241 232 231 240 252 250 268